Flag for Estonia Weather past 2 weeks in Tartu, Estonia

Now
55 °F

Cool.


Feels Like: 53 °F
Forecast: 49 / 68 °F
Wind: 9 mph from Southwest

Location: Tartu/Ulenurme

Current Time: Aug 30, 2015 at 6:57:16 AM

Latest Report: Aug 30, 2015 at 5:50 AM


Visibility: N/A

Pressure: 30.07 "Hg

Humidity: 88%

Dew point: 52 °F

Location of TartuLocation

Historic Weather in Tartu — Graph

°F

Tartu temperature yesterday

Maximum temperature yesterday: 68 °F (at 12:50 PM)
Minimum temperature yesterday: 55 °F (at 2:50 AM)
Average temperature yesterday: 59 °F

Past Weeks' High & Low Weather Summary

 TemperatureHumidityPressure
High81 °F (Aug 25, 3:50 PM)94% (Aug 16, 6:50 AM)30.48 "Hg (Aug 16, 6:50 AM)
Low39 °F (Aug 19, 5:50 AM)34% (Aug 22, 4:50 PM)29.68 "Hg (Aug 28, 2:50 PM)
Average61 °F70%30.16 "Hg
* Reported Aug 15 4:50 AM — Aug 30 4:50 AM, Tartu, Weather by CustomWeather, © 2015

Note: Actual official high and low records may vary slightly from our data, if they occured in-between our weather recording intervals... More about our weather records

Advertising

Tartu weather history for previous 24 hours

 ConditionsComfort  
Time TempWeatherWind HumidityBarometerVisibility
4:50 AM
Sun, Aug 30
54 °FCool.9 mph94%30.07 "HgN/A
3:50 AM54 °FCool.10 mph94%30.07 "HgN/A
2:50 AM55 °FCool.10 mph88%30.07 "HgN/A
1:50 AM54 °FCool.9 mph94%30.07 "HgN/A
12:50 AM54 °FCool.8 mph94%30.07 "HgN/A
11:50 PM
Sat, Aug 29
55 °FCool.9 mph88%30.07 "HgN/A
10:50 PM55 °FCool.8 mph94%30.04 "HgN/A
9:50 PM57 °FCool.10 mph88%30.04 "HgN/A
8:50 PM59 °FCool.12 mph82%30.04 "HgN/A
7:50 PM61 °FCool.15 mph77%30.04 "HgN/A
6:50 PM63 °FPassing clouds.9 mph83%30.01 "HgN/A
5:50 PM57 °FSprinkles. Partly sunny.3 mph88%30.01 "HgN/A
4:50 PM61 °FSprinkles. Broken clouds.12 mph77%29.98 "HgN/A
3:50 PM57 °FThundershowers. Partly sunny.8 mph82%29.98 "HgN/A
2:50 PM59 °FPartly sunny.15 mph77%29.98 "HgN/A
1:50 PM61 °FThundershowers. Partly sunny.13 mph83%29.95 "HgN/A
12:50 PM68 °FSprinkles. Broken clouds.21 mph64%29.92 "HgN/A
11:50 AM61 °FScattered clouds.14 mph77%29.92 "HgN/A
9:50 AM63 °FPartly sunny.15 mph83%29.89 "HgN/A
8:50 AM61 °FScattered clouds.14 mph88%29.89 "HgN/A
7:50 AM59 °FPassing clouds.13 mph88%29.86 "HgN/A
6:50 AM57 °FCool.10 mph94%29.86 "HgN/A
Weather by CustomWeather, © 2015

See weather overviewHow to use our weather pages